Flag for U.S.A. Weather past 2 weeks in Grand Junction, Colorado, U.S.A.

Now
38 °F

Light rain. Fog.


Feels Like: 35 °F
Forecast: 34 / 54 °F
Wind: 3 mph from South

Location: Walker Field

Current Time: Apr 18, 2015 at 11:17:51 AM

Latest Report: Apr 18, 2015 at 10:53 AM


Visibility: 6 mi

Pressure: 30.03 "Hg

Humidity: 90%

Dew point: 35 °F

Location of Grand JunctionLocation

Historic Weather in Grand Junction — Graph

°F

Grand Junction temperature yesterday

Maximum temperature yesterday: 38 °F (at 12:53 AM)
Minimum temperature yesterday: 31 °F (at 1:53 PM)
Average temperature yesterday: 35 °F

Past Weeks' High & Low Weather Summary

 TemperatureHumidityPressure
High76 °F (Apr 14, 2:53 PM)100% (Apr 16, 9:53 AM)30.35 "Hg (Apr 16, 9:53 AM)
Low26 °F (Apr 4, 4:53 AM)5% (Apr 6, 5:53 PM)29.49 "Hg (Apr 14, 9:53 PM)
Average49 °F33%29.87 "Hg
* Reported Apr 3 9:53 AM — Apr 18 9:53 AM, Grand Junction, Weather by CustomWeather, © 2015

Note: Actual official high and low records may vary slightly from our data, if they occured in-between our weather recording intervals... More about our weather records

Advertising

Grand Junction weather history for previous 24 hours

 ConditionsComfort  
Time TempWeatherWind HumidityBarometerVisibility
9:53 AM
Sat, Apr 18
38 °FLight rain. Mostly cloudy.3 mph93%30.03 "Hg10 mi
9:03 AM36 °FFog.5 mph100%30.04 "Hg6 mi
8:53 AM36 °FFog.5 mph100%30.05 "Hg5 mi
7:53 AM34 °FFog.3 mph100%30.05 "Hg0 mi
6:55 AM33 °FFog.3 mph100%30.04 "Hg0 mi
5:53 AM32 °FIce fog.No wind100%30.07 "Hg5 mi
4:56 AM32 °FIce fog.7 mph100%30.05 "Hg1 mi
3:53 AM34 °FOvercast.No wind100%30.05 "Hg7 mi
2:53 AM35 °FFog.5 mph100%30.06 "Hg5 mi
1:53 AM36 °FFog.6 mph100%30.07 "Hg6 mi
12:53 AM33 °FFog.5 mph100%30.09 "Hg5 mi
11:53 PM
Fri, Apr 17
35 °FLow clouds.No wind100%30.08 "Hg8 mi
10:53 PM35 °FPassing clouds.No wind100%30.07 "Hg10 mi
9:49 PM36 °FMostly cloudy.No wind97%30.06 "Hg10 mi
9:00 PM36 °FLight rain. Overcast.5 mph97%30.03 "Hg10 mi
7:53 PM36 °FLight rain. Mostly cloudy.No wind97%30.04 "Hg7 mi
6:53 PM36 °FLight rain. Overcast.No wind97%30.04 "Hg7 mi
5:53 PM36 °FLight rain. Overcast.3 mph97%30.01 "Hg8 mi
4:53 PM36 °FMostly cloudy.5 mph97%30.01 "Hg8 mi
3:53 PM36 °FLight rain. Fog.7 mph97%30.00 "Hg5 mi
2:53 PM33 °FLight rain. Fog.6 mph100%30.02 "Hg3 mi
1:53 PM31 °FSnow. Ice fog.6 mph100%30.06 "Hg1 mi
12:53 PM33 °FLight snow. Fog.6 mph100%30.03 "Hg1 mi
12:00 PM33 °FLight snow. Fog.5 mph100%30.03 "Hg2 mi
11:00 AM33 °FLight snow. Fog.5 mph100%30.03 "Hg1 mi
Weather by CustomWeather, © 2015

See weather overviewHow to use our weather pages